Weather History for GMFM - March, 2014

Change the Weather History Date:

Wednesday, March 26, 2014

  Actual Average Record
Temperature  
Mean Temperature 48 °F -  
Max Temperature 54 °F - - ()
Min Temperature 42 °F - - ()
Degree Days  
Heating Degree Days 17    
Moisture  
Dew Point 42 °F    
Average Humidity 77    
Maximum Humidity 93    
Minimum Humidity 52    
Precipitation  
Precipitation 0.02 in - - ()
Sea Level Pressure  
Sea Level Pressure 30.21 in    
Wind  
Wind Speed 7 mph ()    
Max Wind Speed 13 mph    
Max Gust Speed -    
Visibility 2.8 miles    
Events Rain    
T = Trace of Precipitation, MM = Missing Value Source: Averaged Metar Reports

Daily Weather History Graph

Daily Weather History Graph

Search for Another Location

Airport or City:

Trip Planner

Search our weather history database for the weather conditions in past years. The results will help you decide how hot, cold, wet, or windy it might be!

Date:

Astronomy

Mar. 26, 2014 Rise Set
Actual Time 6:17 AM WET 6:38 PM WET
Civil Twilight 5:52 AM WET 7:03 PM WET
Nautical Twilight 5:23 AM WET 7:32 PM WET
Astronomical Twilight 4:54 AM WET 8:02 PM WET
Moon 3:03 AM WET (3/26) 2:12 PM WET (3/26)
Length of Visible Light 13h 10m
Length of Day
12h 20m
Waning Crescent, 23% of the Moon is Illuminated
Mar 26
Waning Crescent
Mar 30
New
Apr 7
First Quarter
Apr 15
Full
Apr 22
Last Quarter

Hourly Weather History & Observations

Time (WET) Temp. Windchill Dew Point Humidity Pressure Visibility Wind Dir Wind Speed Gust Speed Precip Events Conditions
12:00 AM 45 °F - 42 °F 87% 30.32 in 4 mi WNW 3.5 mph - -   Partly Cloudy
12:00 AM 44.6 °F 43.1 °F 42.8 °F 93% 30.30 in 3.7 mi WNW 3.5 mph - N/A   Scattered Clouds
12:40 AM 44.6 °F - 42.8 °F 93% 30.27 in 1.9 mi WSW 2.3 mph - N/A   Overcast
1:00 AM 44.6 °F 43.1 °F 42.8 °F 93% 30.30 in 1.2 mi WSW 3.5 mph - N/A   Overcast
2:00 AM 44.6 °F 43.1 °F 42.8 °F 93% 30.30 in 3.7 mi WNW 3.5 mph - N/A   Scattered Clouds
3:00 AM 46 °F - 42 °F 81% 30.30 in 1 mi West 9.2 mph - -   Mist
3:00 AM 46.4 °F 41.9 °F 42.8 °F 87% 30.30 in 1.9 mi West 9.2 mph - N/A   Overcast
4:00 AM 46.4 °F 41.9 °F 42.8 °F 87% 30.27 in 2.5 mi West 9.2 mph - N/A   Overcast
5:00 AM 46.4 °F 41.9 °F 41.0 °F 81% 30.24 in 2.5 mi SSW 9.2 mph - N/A   Mostly Cloudy
6:00 AM 47 °F - 41 °F 73% 30.25 in 2 mi SSW 11.5 mph - -   Mist
6:00 AM 46.4 °F 41.9 °F 41.0 °F 81% 30.21 in 2.5 mi SSW 9.2 mph - N/A   Mostly Cloudy
7:00 AM 48.2 °F - 42.8 °F 82% 30.21 in 1.2 mi WSW 10.4 mph - N/A   Overcast
8:00 AM 48.2 °F - 44.6 °F 87% 30.21 in 1.9 mi WSW 12.7 mph - N/A   Overcast
9:00 AM 49 °F - 46 °F 84% 30.25 in 2 mi WSW 11.5 mph - - Rain Light Drizzle
9:00 AM 48.2 °F - 46.4 °F 93% 30.21 in 1.9 mi WSW 11.5 mph - N/A   Mostly Cloudy
10:00 AM 50.0 °F - 46.4 °F 87% 30.21 in 1.9 mi WSW 9.2 mph - N/A   Mostly Cloudy
11:00 AM 48.2 °F - 46.4 °F 93% 30.21 in 2.5 mi WNW 10.4 mph - N/A Rain Rain
12:00 PM 51 °F - 47 °F 80% 30.20 in 2 mi WSW 11.5 mph - - Rain Light Rain
12:00 PM 51.8 °F - 46.4 °F 82% 30.18 in 1.9 mi WSW 11.5 mph - N/A   Mostly Cloudy
2:00 PM 53.6 °F - 41.0 °F 62% 30.15 in 3.1 mi WNW 12.7 mph - N/A   Mostly Cloudy
3:00 PM 53 °F - 41 °F 52% 30.14 in 4 mi WNW 12.7 mph - -   Overcast
3:00 PM 51.8 °F - 41.0 °F 67% 30.12 in 3.7 mi WNW 12.7 mph - N/A   Mostly Cloudy
4:00 PM 51.8 °F - 39.2 °F 62% 30.12 in 3.7 mi WNW 10.4 mph - N/A   Mostly Cloudy
5:00 PM 50.0 °F - 39.2 °F 66% 30.12 in 3.7 mi WNW 10.4 mph - N/A   Mostly Cloudy
6:00 PM 49 °F - 39 °F 59% 30.16 in 4 mi WNW 8.1 mph - -   Mostly Cloudy
6:00 PM 50.0 °F - 39.2 °F 66% 30.15 in 3.7 mi WNW 8.1 mph - N/A   Mostly Cloudy
7:00 PM 50.0 °F - 37.4 °F 62% 30.15 in 3.7 mi West 8.1 mph - N/A   Mostly Cloudy
8:00 PM 48.2 °F - 37.4 °F 66% 30.15 in 3.7 mi NW 9.2 mph - N/A   Mostly Cloudy
9:00 PM 48 °F - 38 °F 60% 30.19 in 4 mi West 4.6 mph - -   Mostly Cloudy
9:00 PM 48.2 °F - 39.2 °F 71% 30.18 in 3.7 mi West 4.6 mph - N/A   Mostly Cloudy
10:00 PM 46.4 °F 42.9 °F 39.2 °F 76% 30.18 in 3.7 mi West 6.9 mph - N/A   Mostly Cloudy
11:00 PM 46.4 °F 44.3 °F 37.4 °F 71% 30.18 in 3.7 mi WNW 4.6 mph - N/A   Mostly Cloudy